Location: Pasarilla del Rebollar
(40.6790°N, 5.0062°W)
Time: 11:52:10
(UTC+00:00)

H-2A R/B - Pass Details

Date: 22 April 2026
Orbit: 730 x 829 km, 98.3° (Epoch: 20 May)

Event Time Altitude Azimuth Distance (km) Brightness Sun altitude
Rises 02:59:03 0° 18° (NNE) 3,252 6.3 -25.4°
Reaches altitude 10° 03:01:24 10° 23° (NNE) 2,336 5.4 -25.1°
Maximum altitude 03:06:27 53° 100° (E) 972 2.6 -24.4°
Enters shadow 03:08:31 33° 158° (SSE) 1,312 3.0 -24.2°
